H1 CPF 2 NER 2025 11 11 9 315 01 glonass132 H2 1401201 9132 39620 2025 11 11 0 0 0 2025 11 14 23 45 0 900 1 1 0 0 0 1 H9 10 0 60990 0.00000 0 -10469012.289 5062332.963 -22685075.608 10 0 60990 900.00000 0 -10487494.072 2227805.529 -23123898.214 10 0 60990 1800.00000 0 -10720429.010 -624029.683 -23112635.530 10 0 60990 2700.00000 0 -11161806.835 -3422063.440 -22651347.552 10 0 60990 3600.00000 0 -11793263.261 -6097569.366 -21748876.492 10 0 60990 4500.00000 0 -12584843.827 -8586830.675 -20422684.833 10 0 60990 5400.00000 0 -13496277.302 -10833559.220 -18698522.453 10 0 60990 6300.00000 0 -14478705.529 -12791005.545 -16609928.561 10 0 60990 7200.00000 0 -15476796.762 -14423671.385 -14197577.724 10 0 60990 8100.00000 0 -16431152.887 -15708552.825 -11508482.604 10 0 60990 9000.00000 0 -17280907.980 -16635862.170 -8595069.237 10 0 60990 9900.00000 0 -17966407.143 -17209198.799 -5514143.585 10 0 60990 10800.00000 0 -18431850.954 -17445162.934 -2325770.574 10 0 60990 11700.00000 0 -18627792.220 -17372430.151 907911.167 10 0 60990 12600.00000 0 -18513378.115 -17030327.616 4123914.192 10 0 60990 13500.00000 0 -18058241.878 -16466974.359 7259641.330 10 0 60990 14400.00000 0 -17243963.506 -15737066.416 10254113.442 10 0 60990 15300.00000 0 -16065037.568 -14899402.540 13049160.803 10 0 60990 16200.00000 0 -14529307.571 -14014256.790 15590554.238 10 0 60990 17100.00000 0 -12657849.116 -13140710.187 17829053.908 10 0 60990 18000.00000 0 -10484307.474 -12334054.679 19721355.704 10 0 60990 18900.00000 0 -8053718.056 -11643378.796 21230917.780 10 0 60990 19800.00000 0 -5420859.684 -11109435.988 22328652.561 10 0 60990 20700.00000 0 -2648209.614 -10762884.153 22993472.336 10 0 60990 21600.00000 0 196414.688 -10622968.776 23212679.656 10 0 60990 22500.00000 0 3042429.676 -10696703.314 22982196.611 10 0 60990 23400.00000 0 5819170.012 -10978579.623 22306630.003 10 0 60990 24300.00000 0 8458573.289 -11450819.248 21199172.277 10 0 60990 25200.00000 0 10897755.786 -12084154.140 19681340.758 10 0 60990 26100.00000 0 13081374.532 -12839103.677 17782560.466 10 0 60990 27000.00000 0 14963679.809 -13667694.516 15539598.300 10 0 60990 27900.00000 0 16510174.857 -14515551.716 12995858.885 10 0 60990 28800.00000 0 17698815.450 -15324274.205 10200554.759 10 0 60990 29700.00000 0 18520700.772 -16033995.888 7207765.831 10 0 60990 30600.00000 0 18980227.685 -16586025.800 4075405.108 10 0 60990 31500.00000 0 19094702.457 -16925457.127 864109.554 10 0 60990 32400.00000 0 18893426.296 -17003635.869 -2363923.412 10 0 60990 33300.00000 0 18416292.836 -16780385.330 -5546132.159 10 0 60990 34200.00000 0 17711955.989 -16225892.353 -8620797.158 10 0 60990 35100.00000 0 16835644.596 -15322174.965 -11528234.431 10 0 60990 36000.00000 0 15846715.239 -14064068.196 -14211953.110 10 0 60990 36900.00000 0 14806045.718 -12459684.703 -16619754.625 10 0 60990 37800.00000 0 13773378.650 -10530328.617 -18704751.957 10 0 60990 38700.00000 0 12804726.971 -8309863.732 -20426288.846 10 0 60990 39600.00000 0 11949950.857 -5843560.060 -21750740.559 10 0 60990 40500.00000 0 11250608.585 -3186464.614 -22652180.070 10 0 60990 41400.00000 0 10738172.593 -401362.372 -23112895.948 10 0 60990 42300.00000 0 10432686.814 2443589.167 -23123751.050 10 0 60990 43200.00000 0 10341922.934 5277454.440 -22684374.080 10 0 60990 44100.00000 0 10461072.173 8029235.951 -21803179.319 10 0 60990 45000.00000 0 10772986.585 10630599.089 -20497213.150 10 0 60990 45900.00000 0 11248960.480 13018491.955 -18791829.464 10 0 60990 46800.00000 0 11850019.435 15137550.518 -16720199.528 10 0 60990 47700.00000 0 12528662.515 16942188.113 -14322665.425 10 0 60990 48600.00000 0 13230983.693 18398281.488 -11645949.489 10 0 60990 49500.00000 0 13899081.925 19484382.580 -8742235.457 10 0 60990 50400.00000 0 14473656.699 20192405.344 -5668139.888 10 0 60990 51300.00000 0 14896677.733 20527759.438 -2483595.007 10 0 60990 52200.00000 0 15114014.192 20508926.302 749333.963 10 0 60990 53100.00000 0 15077910.595 20166497.106 3967672.311 10 0 60990 54000.00000 0 14749203.307 19541715.125 7108774.835 10 0 60990 54900.00000 0 14099182.895 18684586.192 10111554.756 10 0 60990 55800.00000 0 13111023.088 17651639.166 12917677.481 10 0 60990 56700.00000 0 11780715.938 16503432.805 15472695.271 10 0 60990 57600.00000 0 10117473.996 15301915.716 17727100.600 10 0 60990 58500.00000 0 8143583.089 14107751.551 19637278.031 10 0 60990 59400.00000 0 5893712.491 12977722.331 21166337.035 10 0 60990 60300.00000 0 3413711.867 11962318.646 22284810.893 10 0 60990 61200.00000 0 758945.573 11103616.950 22971209.688 10 0 60990 62100.00000 0 -2007766.310 10433531.457 23212418.437 10 0 60990 63000.00000 0 -4818515.029 9972512.148 23003934.307 10 0 60990 63900.00000 0 -7602880.904 9728741.470 22349939.808 10 0 60990 64800.00000 0 -10290616.138 9697861.648 21263211.673 10 0 60990 65700.00000 0 -12814323.195 9863242.496 19764867.883 10 0 60990 66600.00000 0 -15112019.539 10196777.496 17883957.966 10 0 60990 67500.00000 0 -17129484.379 10660174.265 15656904.255 10 0 60990 68400.00000 0 -18822291.907 11206685.243 13126804.256 10 0 60990 69300.00000 0 -20157448.186 11783206.404 10342606.721 10 0 60990 70200.00000 0 -21114564.920 12332656.526 7358176.202 10 0 60990 71100.00000 0 -21686522.154 12796537.863 4231262.977 10 0 60990 72000.00000 0 -21879592.706 13117571.266 1022397.160 10 0 60990 72900.00000 0 -21713023.278 13242295.454 -2206272.647 10 0 60990 73800.00000 0 -21218089.512 13123521.178 -5392174.519 10 0 60990 74700.00000 0 -20436664.119 12722536.684 -8473519.606 10 0 60990 75600.00000 0 -19419357.502 12010970.862 -11390496.763 10 0 60990 76500.00000 0 -18223308.246 10972234.352 -14086432.452 10 0 60990 77400.00000 0 -16909715.657 9602476.235 -16508893.294 10 0 60990 78300.00000 0 -15541217.545 7911013.928 -18610709.734 10 0 60990 79200.00000 0 -14179223.132 5920215.779 -20350900.580 10 0 60990 80100.00000 0 -12881313.163 3664838.697 -21695479.954 10 0 60990 81000.00000 0 -11698816.657 1190845.993 -22618130.384 10 0 60990 81900.00000 0 -10674666.600 -1446247.556 -23100728.216 10 0 60990 82800.00000 0 -9841625.344 -4183436.314 -23133710.297 10 0 60990 83700.00000 0 -9220955.103 -6952605.695 -22716273.848 10 0 60990 84600.00000 0 -8821590.245 -9683137.158 -21856404.666 10 0 60990 85500.00000 0 -8639846.971 -12304628.176 -20570732.117 10 0 60991 0.00000 0 -8659683.161 -14749613.645 -18884213.012 10 0 60991 900.00000 0 -8853497.769 -16956176.121 -16829648.796 10 0 60991 1800.00000 0 -9183435.884 -18870332.065 -14447047.333 10 0 60991 2700.00000 0 -9603143.922 -20448098.025 -11782838.550 10 0 60991 3600.00000 0 -10059899.857 -21657146.407 -8888961.624 10 0 60991 4500.00000 0 -10497027.047 -22477982.477 -5821841.359 10 0 60991 5400.00000 0 -10856487.923 -22904593.122 -2641274.840 10 0 60991 6300.00000 0 -11081545.945 -22944540.757 590748.587 10 0 60991 7200.00000 0 -11119381.326 -22618499.599 3811269.452 10 0 60991 8100.00000 0 -10923548.191 -21959255.478 6957597.050 10 0 60991 9000.00000 0 -10456167.876 -21010213.285 9968539.501 10 0 60991 9900.00000 0 -9689764.726 -19823477.050 12785599.862 10 0 60991 10800.00000 0 -8608666.438 -18457585.555 15354114.280 10 0 60991 11700.00000 0 -7209909.843 -16975000.531 17624309.854 10 0 60991 12600.00000 0 -5503614.297 -15439454.347 19552261.945 10 0 60991 13500.00000 0 -3512807.501 -13913269.267 21100733.204 10 0 60991 14400.00000 0 -1272711.517 -12454760.660 22239879.323 10 0 60991 15300.00000 0 1170480.765 -11115832.331 22947809.404 10 0 60991 16200.00000 0 3761287.556 -9939863.259 23210991.804 10 0 60991 17100.00000 0 6437008.753 -8959972.369 23024499.302 10 0 60991 18000.00000 0 9130099.767 -8197731.855 22392090.310 10 0 60991 18900.00000 0 11770751.119 -7662380.725 21326125.728 10 0 60991 19800.00000 0 14289568.301 -7350569.522 19847323.760 10 0 60991 20700.00000 0 16620242.348 -7246645.315 17984357.695 10 0 60991 21600.00000 0 18702102.225 -7323463.897 15773304.217 10 0 60991 22500.00000 0 20482444.821 -7543694.552 13256952.288 10 0 60991 23400.00000 0 21918547.317 -7861562.548 10483985.060 10 0 60991 24300.00000 0 22979279.540 -8224956.474 7508049.524 10 0 60991 25200.00000 0 23646250.047 -8577812.437 4386730.659 10 0 60991 26100.00000 0 23914438.607 -8862675.441 1180448.816 10 0 60991 27000.00000 0 23792288.760 -9023330.713 -2048699.369 10 0 60991 27900.00000 0 23301256.275 -9007394.487 -5238134.975 10 0 60991 28800.00000 0 22474831.825 -8768755.028 -8326003.131 10 0 60991 29700.00000 0 21357078.053 -8269760.567 -11252368.753 10 0 60991 30600.00000 0 20000741.477 -7483060.958 -13960378.655 10 0 60991 31500.00000 0 18465017.589 -6393024.033 -16397367.438 10 0 60991 32400.00000 0 16813062.146 -4996665.067 -18515885.521 10 0 60991 33300.00000 0 15109352.504 -3304048.007 -20274628.995 10 0 60991 34200.00000 0 13417009.352 -1338139.020 -21639252.741 10 0 60991 35100.00000 0 11795191.101 865884.117 -22583050.421 10 0 60991 36000.00000 0 10296670.398 3261840.455 -23087487.397 10 0 60991 36900.00000 0 8965694.775 5794223.901 -23142575.373 10 0 60991 37800.00000 0 7836221.721 8400282.663 -22747080.560 10 0 60991 38700.00000 0 6930602.832 11012414.726 -21908560.331 10 0 60991 39600.00000 0 6258772.861 13560780.242 -20643226.676 10 0 60991 40500.00000 0 5817978.150 15976022.102 -18975638.195 10 0 60991 41400.00000 0 5593056.048 18191980.958 -16938225.887 10 0 60991 42300.00000 0 5557253.359 20148290.623 -14570661.463 10 0 60991 43200.00000 0 5673548.758 21792744.555 -11919080.338 10 0 60991 44100.00000 0 5896422.340 23083333.522 -9035174.625 10 0 60991 45000.00000 0 6173996.143 23989868.325 -5975174.479 10 0 60991 45900.00000 0 6450453.387 24495119.183 -2798738.656 10 0 60991 46800.00000 0 6668632.123 24595424.036 432222.791 10 0 60991 47700.00000 0 6772681.488 24300740.828 3654769.167 10 0 60991 48600.00000 0 6710666.249 23634142.760 6806167.785 10 0 60991 49500.00000 0 6437007.788 22630779.374 9825125.073 10 0 60991 50400.00000 0 5914657.054 21336349.051 12652984.942 10 0 60991 51300.00000 0 5116906.919 19805149.175 15234870.351 10 0 60991 52200.00000 0 4028767.145 18097787.694 17520745.639 10 0 60991 53100.00000 0 2647844.150 16278653.691 19466379.228 10 0 60991 54000.00000 0 984688.934 14413253.948 21034188.852 10 0 60991 54900.00000 0 -937400.934 12565527.362 22193954.152 10 0 60991 55800.00000 0 -3083116.511 10795249.149 22923384.388 10 0 60991 56700.00000 0 -5406378.892 9155632.231 23208531.982 10 0 60991 57600.00000 0 -7852035.138 7691224.307 23044045.602 10 0 60991 58500.00000 0 -10357938.528 6436186.302 22433259.360 10 0 60991 59400.00000 0 -12857327.531 5413021.796 21388117.618 10 0 60991 60300.00000 0 -15281405.885 4631808.213 19928937.579 10 0 60991 61200.00000 0 -17562018.132 4089959.835 18084014.559 10 0 60991 62100.00000 0 -19634311.194 3772530.947 15889077.391 10 0 60991 63000.00000 0 -21439273.098 3653045.229 13386603.878 10 0 60991 63900.00000 0 -22926044.818 3694816.039 10625008.645 10 0 60991 64800.00000 0 -24053910.316 3852702.018 7657717.975 10 0 60991 65700.00000 0 -24793882.774 4075224.504 4542148.295 10 0 60991 66600.00000 0 -25129821.320 4306958.155 1338606.919 10 0 60991 67500.00000 0 -25059031.630 4491094.673 -1890864.703 10 0 60991 68400.00000 0 -24592324.972 4572072.030 -5083683.760 10 0 60991 69300.00000 0 -23753532.447 4498158.538 -8177932.335 10 0 60991 70200.00000 0 -22578493.891 4223882.587 -11113554.197 10 0 60991 71100.00000 0 -21113562.631 3712204.959 -13833519.104 10 0 60991 72000.00000 0 -19413687.711 2936340.993 -16284931.978 10 0 60991 72900.00000 0 -17540152.870 1881154.223 -18420065.229 10 0 60991 73800.00000 0 -15558066.149 544060.771 -20197293.880 10 0 60991 74700.00000 0 -13533704.628 -1064595.875 -21581914.792 10 0 60991 75600.00000 0 -11531825.102 -2921718.037 -22546833.529 10 0 60991 76500.00000 0 -9613053.146 -4992170.289 -23073104.768 10 0 60991 77400.00000 0 -7831459.999 -7230011.631 -23150314.919 10 0 60991 78300.00000 0 -6232429.028 -9580193.982 -22776798.612 10 0 60991 79200.00000 0 -4850901.505 -11980657.691 -21959683.846 10 0 60991 80100.00000 0 -3710075.679 -14364737.663 -20714763.930 10 0 60991 81000.00000 0 -2820614.000 -16663780.108 -19066197.829 10 0 60991 81900.00000 0 -2180391.899 -18809860.589 -17046043.943 10 0 60991 82800.00000 0 -1774798.497 -20738489.189 -14693635.920 10 0 60991 83700.00000 0 -1577576.011 -22391188.755 -12054812.465 10 0 60991 84600.00000 0 -1552161.443 -23717837.228 -9181016.331 10 0 60991 85500.00000 0 -1653472.544 -24678674.828 -6128280.685 10 0 60992 0.00000 0 -1830060.765 -25245891.019 -2956123.884 10 0 60992 900.00000 0 -2026538.237 -25404724.485 273626.237 10 0 60992 1800.00000 0 -2186173.640 -25154029.241 3498049.800 10 0 60992 2700.00000 0 -2253545.359 -24506284.762 6654374.450 10 0 60992 3600.00000 0 -2177137.504 -23487050.003 9681207.203 10 0 60992 4500.00000 0 -1911767.526 -22133886.155 12519735.060 10 0 60992 5400.00000 0 -1420741.789 -20494795.128 15114869.953 10 0 60992 6300.00000 0 -677647.501 -18626241.070 17416315.495 10 0 60992 7200.00000 0 332294.628 -16590839.463 19379535.035 10 0 60992 8100.00000 0 1611373.636 -14454811.732 20966603.028 10 0 60992 9000.00000 0 3149062.992 -12285312.359 22146924.432 10 0 60992 9900.00000 0 4922239.757 -10147740.094 22897809.741 10 0 60992 10800.00000 0 6895938.609 -8103144.608 23204896.210 10 0 60992 11700.00000 0 9024609.086 -6205835.269 23062408.861 10 0 60992 12600.00000 0 11253823.710 -4501289.725 22473257.685 10 0 60992 13500.00000 0 13522366.476 -3024447.147 21448970.411 10 0 60992 14400.00000 0 15764615.733 -1798454.830 20009462.883 10 0 60992 15300.00000 0 17913123.640 -833918.118 18182651.831 10 0 60992 16200.00000 0 19901286.415 -128682.936 16003917.347 10 0 60992 17100.00000 0 21665995.886 331841.629 13515424.898 10 0 60992 18000.00000 0 23150163.453 573835.261 10765319.089 10 0 60992 18900.00000 0 24305012.586 633729.033 7806803.663 10 0 60992 19800.00000 0 25092045.207 556434.954 4697124.305 10 0 60992 20700.00000 0 25484600.365 393216.679 1496472.788 10 0 60992 21600.00000 0 25468940.134 199290.545 -1733167.407 10 0 60992 22500.00000 0 25044816.919 31257.578 -4929212.549 10 0 60992 23400.00000 0 24225497.646 -55525.606 -8029684.728 10 0 60992 24300.00000 0 23037242.714 -9526.171 -10974409.600 10 0 60992 25200.00000 0 21518260.221 214544.442 -13706182.778 10 0 60992 26100.00000 0 19717177.892 653571.741 -16171882.222 10 0 60992 27000.00000 0 17691095.341 1334233.380 -18323504.833 10 0 60992 27900.00000 0 15503296.938 2271626.063 -20119106.822 10 0 60992 28800.00000 0 13220720.024 3468384.007 -21523629.053 10 0 60992 29700.00000 0 10911283.586 4914328.370 -22509590.774 10 0 60992 30600.00000 0 8641188.630 6586664.876 -23057637.504 10 0 60992 31500.00000 0 6472302.939 8450723.749 -23156931.610 10 0 60992 32400.00000 0 4459739.601 10461213.222 -22805377.062 10 0 60992 33300.00000 0 2649730.761 12563936.012 -22009673.028 10 0 60992 34200.00000 0 1077885.890 14697898.298 -20785194.277 10 0 60992 35100.00000 0 -232092.263 16797723.770 -19155699.816 10 0 60992 36000.00000 0 -1269180.100 18796271.967 -17152874.661 10 0 60992 36900.00000 0 -2035261.696 20627350.910 -14815713.128 10 0 60992 37800.00000 0 -2544804.336 22228409.581 -12189755.475 10 0 60992 38700.00000 0 -2823995.647 23543096.314 -9326192.909 10 0 60992 39600.00000 0 -2909380.034 24523574.452 -6280859.016 10 0 60992 40500.00000 0 -2846053.733 25132496.931 -3113128.227 10 0 60992 41400.00000 0 -2685496.808 25344555.934 115255.913 10 0 60992 42300.00000 0 -2483136.010 25147542.032 3341398.314 10 0 60992 43200.00000 0 -2295743.866 24542868.343 6502490.444 10 0 60992 44100.00000 0 -2178786.146 23545538.308 9537043.387 10 0 60992 45000.00000 0 -2183831.700 22183559.501 12386090.613 10 0 60992 45900.00000 0 -2356135.472 20496829.559 14994336.220 10 0 60992 46800.00000 0 -2732497.608 18535542.488 17311226.054 10 0 60992 47700.00000 0 -3339489.206 16358183.714 19291921.076 10 0 60992 48600.00000 0 -4192119.312 14029198.947 20898154.819 10 0 60992 49500.00000 0 -5292998.660 11616435.017 22098959.577 10 0 60992 50400.00000 0 -6632034.607 9188459.659 22871248.706 10 0 60992 51300.00000 0 -8186669.359 6811871.368 23200245.512 10 0 60992 52200.00000 0 -9922651.041 4548710.177 23079752.119 10 0 60992 53100.00000 0 -11795305.195 2454075.313 22512254.641 10 0 60992 54000.00000 0 -13751253.881 574046.669 21508863.878 10 0 60992 54900.00000 0 -15730511.334 -1056005.900 20089093.460 10 0 60992 55800.00000 0 -17668869.842 -2412657.476 18280480.112 10 0 60992 56700.00000 0 -19500477.757 -3485158.041 16118053.235 10 0 60992 57600.00000 0 -21160503.640 -4275628.984 13643663.520 10 0 60992 58500.00000 0 -22587776.925 -4798719.428 10905182.701 10 0 60992 59400.00000 0 -23727296.206 -5080737.755 7955588.809 10 0 60992 60300.00000 0 -24532501.429 -5158295.218 4851953.411 10 0 60992 61200.00000 0 -24967215.587 -5076518.648 1654349.240 10 0 60992 62100.00000 0 -25007174.846 -4886907.182 -1575301.714 10 0 60992 63000.00000 0 -24641082.680 -4644922.808 -4774418.287 10 0 60992 63900.00000 0 -23871143.043 -4407415.903 -7880965.959 10 0 60992 64800.00000 0 -22713049.054 -4229994.048 -10834655.502 10 0 60992 65700.00000 0 -21195426.180 -4164445.146 -13578111.417 10 0 60992 66600.00000 0 -19358751.603 -4256323.976 -16057987.466 10 0 60992 67500.00000 0 -17253793.361 -4542804.775 -18226007.464 10 0 60992 68400.00000 0 -14939632.963 -5050891.655 -20039910.803 10 0 60992 69300.00000 0 -12481352.818 -5796063.912 -21464283.856 10 0 60992 70200.00000 0 -9947483.967 -6781415.225 -22471260.498 10 0 60992 71100.00000 0 -7407319.897 -7997325.178 -23041077.463 10 0 60992 72000.00000 0 -4928208.106 -9421679.169 -23162472.878 10 0 60992 72900.00000 0 -2572932.291 -11020629.680 -22832919.345 10 0 60992 73800.00000 0 -397294.449 -12749868.914 -22058686.032 10 0 60992 74700.00000 0 1552001.837 -14556360.986 -20854727.617 10 0 60992 75600.00000 0 3239078.273 -16380462.037 -19244401.290 10 0 60992 76500.00000 0 4640146.412 -18158339.895 -17259016.562 10 0 60992 77400.00000 0 5744256.977 -19824591.596 -14937226.103 10 0 60992 78300.00000 0 6553502.825 -21314948.286 -12324269.262 10 0 60992 79200.00000 0 7082667.812 -22568952.878 -9471083.123 10 0 60992 80100.00000 0 7358337.503 -23532496.588 -6433299.043 10 0 60992 81000.00000 0 7417510.850 -24160106.367 -3270145.155 10 0 60992 81900.00000 0 7305773.442 -24416885.787 -43277.478 10 0 60992 82800.00000 0 7075111.736 -24280026.798 3184436.014 10 0 60992 83700.00000 0 6781463.049 -23739828.321 6350153.133 10 0 60992 84600.00000 0 6482107.167 -22800178.913 9392291.436 10 0 60992 85500.00000 0 6233011.896 -21478483.783 12251733.106 10 0 60993 0.00000 0 6086246.331 -19805040.421 14872976.251 10 0 60993 900.00000 0 6087572.122 -17821889.336 17205211.260 10 0 60993 1800.00000 0 6274314.990 -15581191.710 19203298.019 10 0 60993 2700.00000 0 6673605.907 -13143200.056 20828630.425 10 0 60993 3600.00000 0 7301065.632 -10573909.607 22049869.066 10 0 60993 4500.00000 0 8159987.004 -7942487.911 22843530.804 10 0 60993 5400.00000 0 9241048.388 -5318589.511 23194425.316 10 0 60993 6300.00000 0 10522569.484 -2769666.460 23095931.858 10 0 60993 7200.00000 0 11971298.152 -358384.994 22550112.441 10 0 60993 8100.00000 0 13543695.206 1859746.369 21567660.464 10 0 60993 9000.00000 0 15187663.685 3838441.054 20167686.676 10 0 60993 9900.00000 0 16844651.061 5542307.635 18377346.938 10 0 60993 10800.00000 0 18452037.616 6948064.816 16231318.913 10 0 60993 11700.00000 0 19945712.562 8045249.716 13771137.281 10 0 60993 12600.00000 0 21262731.601 8836391.688 11044399.446 10 0 60993 13500.00000 0 22343946.187 9336645.677 8103856.041 10 0 60993 14400.00000 0 23136495.574 9572901.274 5006402.576 10 0 60993 15300.00000 0 23596058.044 9582405.136 1811990.561 10 0 60993 16200.00000 0 23688767.280 9410954.568 -1417521.899 10 0 60993 17100.00000 0 23392713.332 9110737.931 -4619558.752 10 0 60993 18000.00000 0 22698964.491 8737912.383 -7732031.492 10 0 60993 18900.00000 0 21612066.011 8350020.637 -10694538.621 10 0 60993 19800.00000 0 20149993.208 8003355.442 -13449536.059 10 0 60993 20700.00000 0 18343559.059 7750383.021 -15943455.756 10 0 60993 21600.00000 0 16235299.199 7637334.551 -18127750.653 10 0 60993 22500.00000 0 13877878.990 7702068.073 -19959845.366 10 0 60993 23400.00000 0 11332087.553 7972292.150 -21403973.635 10 0 60993 24300.00000 0 8664500.977 8464227.668 -22431885.672 10 0 60993 25200.00000 0 5944911.064 9181765.938 -23023410.959 10 0 60993 26100.00000 0 3243626.028 10116160.500 -23166864.725 10 0 60993 27000.00000 0 628755.239 11246267.568 -22859289.277 10 0 60993 27900.00000 0 -1836408.941 12539326.870 -22106524.551 10 0 60993 28800.00000 0 -4095802.888 13952251.656 -20923105.505 10 0 60993 29700.00000 0 -6102696.151 15433374.776 -19331987.455 10 0 60993 30600.00000 0 -7821400.419 16924578.162 -17364103.888 10 0 60993 31500.00000 0 -9228511.381 18363716.224 -15057764.848 10 0 60993 32400.00000 0 -10313631.610 19687230.803 -12457907.339 10 0 60993 33300.00000 0 -11079544.632 20832846.733 -9615212.492 10 0 60993 34200.00000 0 -11541833.785 21742233.207 -6585107.235 10 0 60993 35100.00000 0 -11727963.323 22363517.418 -3426670.878 10 0 60993 36000.00000 0 -11675862.304 22653543.134 -201469.144 10 0 60993 36900.00000 0 -11432073.215 22579777.772 3027660.083 10 0 60993 37800.00000 0 -11049545.846 22121786.779 6197844.079 10 0 60993 38700.00000 0 -10585172.017 21272212.810 9247410.076 10 0 60993 39600.00000 0 -10097167.531 20037218.618 12117092.187 10 0 60993 40500.00000 0 -9642413.774 18436375.582 14751186.139 10 0 60993 41400.00000 0 -9273872.521 16502003.466 17098628.979 10 0 60993 42300.00000 0 -9038183.741 14277990.184 19113982.901 10 0 60993 43200.00000 0 -8973547.710 11818141.994 20758304.827 10 0 60993 44100.00000 0 -9107980.168 9184133.871 21999886.017 10 0 60993 45000.00000 0 -9458012.943 6443145.984 22814848.881 10 0 60993 45900.00000 0 -10027893.522 3665284.577 23187591.121 10 0 60993 46800.00000 0 -10809315.942 920893.789 23111070.342 10 0 60993 47700.00000 0 -11781693.262 -1722131.160 22586925.165 10 0 60993 48600.00000 0 -12912959.480 -4200919.664 21625431.792 10 0 60993 49500.00000 0 -14160867.086 -6459985.582 20245297.730 10 0 60993 50400.00000 0 -15474726.144 -8453275.582 18473297.056 10 0 60993 51300.00000 0 -16797512.764 -10145823.296 16343754.233 10 0 60993 52200.00000 0 -18068259.788 -11514942.700 13897885.945 10 0 60993 53100.00000 0 -19224630.787 -12550912.927 11183012.838 10 0 60993 54000.00000 0 -20205570.854 -13257127.415 8251655.333 10 0 60993 54900.00000 0 -20953924.249 -13649702.201 5160529.765 10 0 60993 55800.00000 0 -21418909.968 -13756560.256 1969463.090 10 0 60993 56700.00000 0 -21558351.834 -13616030.389 -1259753.951 10 0 60993 57600.00000 0 -21340569.418 -13275019.347 -4464553.969 10 0 60993 58500.00000 0 -20745849.827 -12786833.547 -7582798.039 10 0 60993 59400.00000 0 -19767437.453 -12208741.686 -10553975.918 10 0 60993 60300.00000 0 -18411998.565 -11599380.490 -13320378.348 10 0 60993 61200.00000 0 -16699539.376 -11016112.739 -15828218.681 10 0 60993 62100.00000 0 -14662778.860 -10512449.001 -18028681.905 10 0 60993 63000.00000 0 -12346000.398 -10135642.162 -19878880.388 10 0 60993 63900.00000 0 -9803428.136 -9924556.901 -21342697.272 10 0 60993 64800.00000 0 -7097194.003 -9907904.940 -22391500.569 10 0 60993 65700.00000 0 -4294978.567 -10102921.803 -23004713.365 10 0 60993 66600.00000 0 -1467422.932 -10514542.355 -23170228.215 10 0 60993 67500.00000 0 1314581.301 -11135111.484 -22884656.787 10 0 60993 68400.00000 0 3982611.523 -11944643.750 -22153408.914 10 0 60993 69300.00000 0 6473329.732 -12911622.486 -20990598.526 10 0 60993 70200.00000 0 8730885.074 -13994305.876 -19418777.375 10 0 60993 71100.00000 0 10709002.730 -15142485.721 -17468500.922 10 0 60993 72000.00000 0 12372671.540 -16299625.036 -15177734.293 10 0 60993 72900.00000 0 13699359.657 -17405284.071 -12591109.611 10 0 60993 73800.00000 0 14679707.463 -18397731.719 -9759049.276 10 0 60993 74700.00000 0 15317669.238 -19216630.892 -6736772.827 10 0 60993 75600.00000 0 15630098.702 -19805683.135 -3583207.643 10 0 60993 76500.00000 0 15645797.430 -20115119.257 -359825.962 10 0 60993 77400.00000 0 15404068.175 -20103929.430 2870567.606 10 0 60993 78300.00000 0 14952836.401 -19741737.419 6045072.892 10 0 60993 79200.00000 0 14346421.695 -19010239.117 9101929.707 10 0 60993 80100.00000 0 13643055.410 -17904144.448 11981726.747 10 0 60993 81000.00000 0 12902251.403 -16431583.093 14628559.464 10 0 60993 81900.00000 0 12182142.305 -14613957.560 16991113.995 10 0 60993 82800.00000 0 11536894.664 -12485250.505 19023656.176 10 0 60993 83700.00000 0 11014312.123 -10090816.222 20686907.118 10 0 60993 84600.00000 0 10653727.203 -7485707.551 21948789.531 10 0 60993 85500.00000 0 10484269.414 -4732608.492 22785031.755 99